Location: Gälforsberget
(66.6500°N, 22.4167°E)
Time: 07:31:50
(UTC+00:00)

DNEPR-1 R/B - Pass Details

Date: 11 April 2026
Orbit: 582 x 1331 km, 64.6° (Epoch: 12 May)

Event Time Altitude Azimuth Distance (km) Brightness Sun altitude
Exits shadow 23:30:09 - 257° (WSW) 2,724 6.6 -14.0°
Reaches altitude 10° 23:31:59 10° 255° (WSW) 1,979 5.9 -13.9°
Maximum altitude 23:36:22 69° 173° (S) 721 3.6 -13.8°
Drops below altitude 10° 23:41:27 10° 91° (E) 2,290 6.7 -13.7°
Sets 23:44:04 0° 89° (E) 3,333 7.6 -13.6°
